Regional Weather Roundup
Issued by NWS Burlington, VT

Current Version | Previous Version | Text Only | Print | Product List | Glossary Off
Versions: 1 2 3 4 5 6 7 8 9 10 11 12 13 14 15 16 17 18 19 20 21 22 23 24 25 26 27 28 29 30 31 32 33 34 35 36 37 38 39 40 41 42 43 44 45 46 47 48 49 50

000
ASUS41 KBTV 292210
RWRBTV
VERMONT REGIONAL WEATHER ROUNDUP
NATIONAL WEATHER SERVICE BURLINGTON VT
600 PM EDT SUN MAY 29 2016

NOTE: "FAIR" INDICATES FEW OR NO CLOUDS BELOW 12,000 FEET WITH NO
SIGNIFICANT WEATHER AND/OR OBSTRUCTIONS TO VISIBILITY.

* THESE REPORTS ARE NOT UNDER NWS QUALITY CONTROL AND/OR DO NOT
  REPORT WEATHER SUCH AS PRECIPITATION AND FOG.

VTZ001>019-292300-
_____VERMONT_____


CITY           SKY/WX    TMP DP  RH WIND       PRES   REMARKS
BURLINGTON     TSTM      72  68  87 S6        30.04F
MONTPELIER     LGT RAIN  68  62  81 SW3       30.14S
MORRISVILLE    LGT RAIN  69  64  84 S5        30.08S
ST. JOHNSBURY*   N/A     73  59  61 MISG      30.07S
LYNDONVILLE*   PTSUNNY   71  61  70 S6        30.12R
RUTLAND*       FAIR      71  65  81 E14       30.08S
SPRINGFIELD    CLOUDY    68  60  75 SE7       30.11S
HIGHGATE*      LGT RAIN  69  68  94 SW3       30.01R
NEWPORT*       LGT RAIN  71  64  80 S10       30.07S
BENNINGTON     FAIR      74  65  73 E3        30.03F
SUTTON*          N/A     70 N/A N/A MISG        N/A

_____LAKE CHAMPLAIN_____


CITY           SKY/WX    TMP DP  RH WIND       PRES   REMARKS
BURTON ISLAND*   N/A     70  68  94 SW6         N/A
COLCHESTER RF*   N/A     70  68  94 NE2         N/A
DIAMOND ISL*     N/A     73  70  88 N15         N/A

$$

NYZ007-026>031-035-052-083-087-292300-
_____NORTHERN NEW YORK_____


CITY           SKY/WX    TMP DP  RH WIND       PRES   REMARKS
PLATTSBURGH    TSTM      71  69  93 W5        30.01F FOG
SARANAC LAKE   LGT RAIN  67  64  90 E6        30.04F
MASSENA        CLOUDY    80  64  58 S13       29.94F THUNDER
OGDENSBURG*    SUNNY     84  68  58 SW7       29.93F
WATERTOWN      CLOUDY    77  67  71 W9        29.97S
ALBANY         CLOUDY    76  68  76 N7        30.01F THUNDER
GLENS FALLS    PTSUNNY   74  69  85 SE6       30.01F

$$
NHZ002-005-011-292300-
_____NEW HAMPSHIRE_____


CITY           SKY/WX    TMP DP  RH WIND       PRES   REMARKS
LEBANON        CLOUDY    68  59  73 VRB5      30.10F
MT WASHINGTON  PTSUNNY   57  55  94 SW23G31     N/A
PLYMOUTH       CLOUDY    63  56  77 CALM      30.16F
WHITEFIELD     CLOUDY    72  59  63 CALM      30.10R

$$

_____REGIONAL QUEBEC LOCATIONS_____


CITY           SKY/WX    TMP DP  RH WIND       PRES   REMARKS
MONTREAL       CLOUDY    81  66  61 S14G21    29.94F
QUEBEC CITY    PTSUNNY   61  55  82 E10       30.03F
SHERBROOKE     PTSUNNY   72  61  68 SE9       30.04R

_____REGIONAL ONTARIO LOCATIONS_____


CITY           SKY/WX    TMP DP  RH WIND       PRES   REMARKS
OTTAWA         PTSUNNY   90  68  48 S10G18    29.89F HX  93

______KEY______
VSB  - VISIBILITY IN MILES
WCI  - WIND CHILL INDEX
HX   - HEAT INDEX
$$
NNNN




USA.gov is the U.S. government's official web portal to all federal, state and local government web resources and services.